Weather History for KGUY - February, 2014

Change the Weather History Date:

Friday, February 14, 2014

  Actual Average Record
Temperature  
Mean Temperature 44 °F 38 °F  
Max Temperature 57 °F 53 °F - ()
Min Temperature 31 °F 23 °F - ()
Degree Days  
Heating Degree Days 21 27  
Month to date heating degree days 547 386  
Since 1 July heating degree days 3263 3114  
Cooling Degree Days 0 0  
Month to date cooling degree days 0 0  
Year to date cooling degree days 0 0  
Moisture  
Dew Point 22 °F    
Average Humidity 48    
Maximum Humidity 76    
Minimum Humidity 20    
Precipitation  
Precipitation 0.00 in 0.01 in - ()
Month to date precipitation 0.16 0.21  
Year to date precipitation 0.34 0.61  
Snow  
Snow 0.00 in - - ()
Month to date snowfall 2.5  
Since 1 July snowfall 12.7  
Snow Depth 0.00 in    
Sea Level Pressure  
Sea Level Pressure 29.95 in    
Wind  
Wind Speed 13 mph (NNW)    
Max Wind Speed 25 mph    
Max Gust Speed 35 mph    
Visibility 10 miles    
Events      
T = Trace of Precipitation, MM = Missing Value Source: NWS Daily Summary

Daily Weather History Graph

Daily Weather History Graph

Search for Another Location

Airport or City:

Trip Planner

Search our weather history database for the weather conditions in past years. The results will help you decide how hot, cold, wet, or windy it might be!

Date:

Astronomy

Feb. 14, 2014 Rise Set
Actual Time 7:35 AM CST 6:25 PM CST
Civil Twilight 7:08 AM CST 6:52 PM CST
Nautical Twilight 6:38 AM CST 7:22 PM CST
Astronomical Twilight 6:08 AM CST 7:52 PM CST
Moon 6:29 PM CST (2/14) 7:04 AM CST (2/14)
Length of Visible Light 11h 43m
Length of Day
10h 50m
Full, 100% of the Moon is Illuminated
Feb 14
Full
Feb 14
Full
Feb 22
Last Quarter
Mar 1
New
Mar 8
First Quarter

Hourly Weather History & Observations

Time (CST) Temp. Windchill Dew Point Humidity Pressure Visibility Wind Dir Wind Speed Gust Speed Precip Events Conditions
12:53 AM 48.0 °F - 26.1 °F 42% 29.68 in 10.0 mi SW 13.8 mph - N/A   Clear
1:53 AM 48.0 °F - 26.1 °F 42% 29.68 in 10.0 mi West 9.2 mph - N/A   Clear
2:53 AM 45.0 °F 38.5 °F 26.1 °F 48% 29.70 in 10.0 mi WNW 13.8 mph - N/A   Clear
3:53 AM 46.0 °F 42.5 °F 27.0 °F 47% 29.71 in 10.0 mi WNW 6.9 mph - N/A   Clear
4:53 AM 46.9 °F - 28.9 °F 50% 29.77 in 10.0 mi North 21.9 mph 31.1 mph N/A   Clear
5:53 AM 42.1 °F 32.8 °F 28.9 °F 60% 29.85 in 10.0 mi North 21.9 mph 27.6 mph N/A   Clear
6:53 AM 39.9 °F 29.5 °F 28.9 °F 65% 29.90 in 10.0 mi North 24.2 mph 32.2 mph N/A   Clear
7:53 AM 37.9 °F 28.2 °F 30.0 °F 73% 29.98 in 10.0 mi North 18.4 mph - N/A   Clear
8:53 AM 41.0 °F 33.1 °F 30.0 °F 65% 30.03 in 10.0 mi NNW 15.0 mph - N/A   Clear
9:53 AM 45.0 °F 38.9 °F 28.0 °F 52% 30.05 in 10.0 mi NNW 12.7 mph 23.0 mph N/A   Clear
10:53 AM 50.0 °F - 23.0 °F 35% 30.07 in 10.0 mi North 18.4 mph - N/A   Clear
11:53 AM 52.0 °F - 19.9 °F 28% 30.06 in 10.0 mi NNW 15.0 mph - N/A   Clear
12:53 PM 54.0 °F - 17.1 °F 23% 30.04 in 10.0 mi North 20.7 mph 27.6 mph N/A   Clear
1:53 PM 55.0 °F - 16.0 °F 22% 30.00 in 10.0 mi North 19.6 mph 27.6 mph N/A   Clear
2:53 PM 55.9 °F - 15.1 °F 20% 29.99 in 10.0 mi NNE 17.3 mph - N/A   Clear
3:53 PM 55.9 °F - 15.1 °F 20% 30.00 in 10.0 mi North 11.5 mph - N/A   Clear
4:53 PM 55.9 °F - 15.1 °F 20% 30.00 in 10.0 mi North 5.8 mph - N/A   Clear
5:53 PM 52.0 °F - 15.1 °F 23% 30.02 in 10.0 mi NNE 8.1 mph - N/A   Clear
6:53 PM 48.0 °F - 16.0 °F 28% 30.04 in 10.0 mi East 3.5 mph - N/A   Clear
7:53 PM 41.0 °F 38.0 °F 17.1 °F 38% 30.05 in 10.0 mi South 4.6 mph - N/A   Clear
8:53 PM 39.0 °F 36.8 °F 17.1 °F 41% 30.06 in 10.0 mi South 3.5 mph - N/A   Clear
9:53 PM 35.1 °F 29.3 °F 19.0 °F 52% 30.04 in 10.0 mi SSW 6.9 mph - N/A   Clear
10:53 PM 34.0 °F 28.8 °F 19.0 °F 54% 30.04 in 10.0 mi SSW 5.8 mph - N/A   Clear
11:53 PM 32.0 °F 24.8 °F 19.0 °F 59% 30.01 in 10.0 mi SSW 8.1 mph - N/A   Clear